Regional Weather Roundup
Issued by NWS

Home | Current Version | Previous Version | Text Only | Print | Product List | Glossary On
Versions: 1 2 3 4 5 6 7 8 9 10 11 12 13 14 15 16 17 18 19 20 21 22 23 24 25 26 27 28 29 30 31 32 33 34 35 36 37 38 39 40 41 42 43 44 45 46 47 48 49 50
000
ASUS43 KOAX 241310
RWRNE

WEATHER ROUNDUP FOR NEBRASKA
NATIONAL WEATHER SERVICE OMAHA NE
700 AM CST SAT FEB 24 2018

NOTES: SATELLITE DATA IS BEING USED TO AUGMENT CLOUD COVER ABOVE
       12000 FEET.
       "FAIR" INDICATES FEW OR NO CLOUDS BELOW 12,000 FEET WITH NO
       SIGNIFICANT WEATHER AND/OR OBSTRUCTIONS TO VISIBILITY.


NEZ001>004-019>022-054>056-241400-
NEBRASKA PANHANDLE

CITY           SKY/WX    TMP DP  RH WIND       PRES   REMARKS
SCOTTSBLUFF    MOCLDY    16  15  96 CALM      29.78F FOG
ALLIANCE       CLOUDY    21  20  96 S7        29.76S WCI  12
CHADRON        MOCLDY    19  16  88 CALM      29.78F
GORDON         LGT SNOW  21  18  88 SW5       29.77F WCI  15
KIMBALL        MOCLDY    17  15  93 W6        29.76F FOG     WCI   9
SIDNEY         CLOUDY    20  18  92 S9        29.78F WCI   9
$$

NEZ057>060-069>072-079>082-241400-
SOUTHWEST NEBRASKA

CITY           SKY/WX    TMP DP  RH WIND       PRES   REMARKS
NORTH PLATTE   LGT SNOW  20  17  88 CALM      29.87F FOG
IMPERIAL       CLOUDY    22  21  96 S5        29.86S WCI  16
LEXINGTON      CLOUDY    23  21  91 SE5       29.89F FOG     WCI  17
MCCOOK         CLOUDY    23  23 100 SE7       29.89F WCI  15
OGALLALA       CLOUDY    22  20  91 CALM      29.84F
$$

NEZ005>010-023>029-035>040-094-241400-
NORTH CENTRAL NEBRASKA

CITY           SKY/WX    TMP DP  RH WIND       PRES   REMARKS
VALENTINE      LGT SNOW  16  12  84 E5        29.87F VSB 1   WCI   9
AINSWORTH      LGT SNOW  17  16  96 CALM      29.88F VSB 1
BROKEN BOW     CLOUDY    21  18  88 SE7       29.89F FOG     WCI  12
O`NEILL        LGT SNOW  11  10  93 CALM      29.97S VSB 1
ORD            LGT SNOW  17  15  92 SE5       29.93F FOG     WCI  10
THEDFORD       CLOUDY    19  17  93 CALM      29.86F
$$

NEZ041-046>049-061>064-073>077-083>087-241400-
SOUTH CENTRAL NEBRASKA

CITY           SKY/WX    TMP DP  RH WIND       PRES   REMARKS
GRAND ISLAND   LGT SNOW  20  17  88 N7        29.96S FOG     WCI  11
AURORA         CLOUDY   N/A N/A N/A CALM      29.96F HAZE
HASTINGS       LGT SNOW  21  18  88 NE8       29.92F FOG     WCI  11
HEBRON         CLOUDY    26  25  96 E6        29.95F FOG     WCI  19
HOLDREGE       CLOUDY    21  21 100 NE3       29.91F
KEARNEY        FLURRIES  20  18  92 NE3       29.93F
YORK           CLOUDY    21  21 100 CALM      29.97F FOG
$$

NEZ011>018-030>034-042>045-241400-
NORTHEAST NEBRASKA

CITY           SKY/WX    TMP DP  RH WIND       PRES   REMARKS
NORFOLK        LGT SNOW  20  18  92 E7        29.97F FOG     WCI  11
ALBION         LGT SNOW  19  17  92 CALM      29.98S
BLAIR          LGT SNOW  24  23  94 NE3       29.99F
COLUMBUS       LGT SNOW  19  18  95 NE3       30.00S FOG
FREMONT        LGT SNOW  22  22  98 E5        30.00F WCI  16
TEKAMAH        LGT SNOW  23  20  88 E3        30.02F FOG
WAYNE          CLOUDY    21  20  96 CALM      30.00F
$$

NEZ050>053-065>068-078-088>093-241400-
SOUTHEAST NEBRASKA

CITY           SKY/WX    TMP DP  RH WIND       PRES   REMARKS
LINCOLN        LGT SNOW  24  22  91 NE6       30.00F FOG     WCI  17
OMAHA EPPLEY   LGT SNOW  26  22  84 E6        30.01F FOG     WCI  19
BEATRICE       CLOUDY    28  27  99 NE5       29.96F FOG     WCI  22
FALLS CITY     CLOUDY    29  28  96 E8        29.98F FOG     WCI  21
NEBRASKA CITY  CLOUDY    27  27 100 E7        29.99F FOG     WCI  19
PLATTSMOUTH    CLOUDY    26  25  97 E7        29.99F FOG     WCI  18
$$

NEZ044-045-051>053-067-241400-
OMAHA AREA

CITY           SKY/WX    TMP DP  RH WIND       PRES   REMARKS
OMAHA EPPLEY   LGT SNOW  26  22  84 E6        30.01F FOG     WCI  19
BLAIR          LGT SNOW  24  23  94 NE3       29.99F
FREMONT        LGT SNOW  22  22  98 E5        30.00F WCI  16
MILLARD        MIX PCPN  26  24  89 CALM      30.01F
OFFUTT AFB     FRZ DRZL  26  24  92 E6        30.00F FOG     WCI  19
PLATTSMOUTH    CLOUDY    26  25  97 E7        29.99F FOG     WCI  18
WAHOO          MIX PCPN  24  22  94 E6        30.00F WCI  16
$$



USA.gov is the U.S. government's official web portal to all federal, state and local government web resources and services.